This is the latest recevied weather packets stored in our database for station/object XE2B-20. If no packets are shown the sender has not sent any weather packets the latest 1 day(s).
| Time | Temp. | Humidity | Pressure | Rain* | Wind** | Luminosity | Snow |
|---|---|---|---|---|---|---|---|
| 1777876225 | 20.56° C | 20% | 806.7 hPa | - | - | - | - |
| 1777874725 | 21.11° C | 20% | 806.5 hPa | - | - | - | - |
| 1777873225 | 21.11° C | 19% | 806.5 hPa | - | - | - | - |
| 1777871726 | 21.67° C | 19% | 806.4 hPa | - | - | - | - |
| 1777870227 | 22.22° C | 19% | 806.6 hPa | - | - | - | - |
| 1777868728 | 22.22° C | 19% | 806.6 hPa | - | - | - | - |
| 1777867229 | 22.78° C | 19% | 806.5 hPa | - | - | - | - |
| 1777865729 | 23.33° C | 19% | 806.4 hPa | - | - | - | - |
| 1777864230 | 23.89° C | 19% | 805.9 hPa | - | - | - | - |
| 1777862731 | 24.44° C | 18% | 805.5 hPa | - | - | - | - |
| 1777861232 | 25° C | 18% | 805 hPa | - | - | - | - |
| 1777859734 | 25° C | 19% | 804.5 hPa | - | - | - | - |
| 1777858236 | 26.11° C | 18% | 804.1 hPa | - | - | - | - |
| 1777856737 | 27.22° C | 18% | 803.8 hPa | - | - | - | - |
| 1777855246 | 28.89° C | 18% | 803.8 hPa | - | - | - | - |
| 1777853741 | 30° C | 17% | 803.7 hPa | - | - | - | - |
| 1777852242 | 31.11° C | 17% | 803.5 hPa | - | - | - | - |
| 1777850745 | 31.67° C | 17% | 803.6 hPa | - | - | - | - |
| 1777849245 | 32.78° C | 16% | 803.7 hPa | - | - | - | - |
| 1777847749 | 32.78° C | 17% | 803.8 hPa | - | - | - | - |
| 1777844748 | 33.89° C | 17% | 804.2 hPa | - | - | - | - |
| 1777843250 | 33.89° C | 17% | 804.5 hPa | - | - | - | - |
| 1777841751 | 34.44° C | 17% | 805 hPa | - | - | - | - |
| 1777840253 | 34.44° C | 17% | 805.3 hPa | - | - | - | - |
| 1777838755 | 33.89° C | 17% | 805.7 hPa | - | - | - | - |
* Rain since midnight (hover to see other rain measurements)
** Current wind speed in m/s (hover to see current wind gust speed)